Вернуться в каталог

STARLINK-33968

АктивенСвязьVLEO
NORAD 63883·PAYLOAD·🇺🇸 United States

Запущен May 10, 2025 с Vandenberg Space Force Base

Loading…

Ближайшие Пролёты (ближайшие 24 часа)

TLE

СвежийSource: CelesTrak SupGP

Эпоха: Sep 14, 2026, 21:16 UTC

1 63883C 25094V   26257.88659722 -.00014739  00000+0 -49976-3 0  2577
2 63883  69.9989 115.8746 0003244 271.8546  27.4590 15.30418144    17

Отслеживайте STARLINK-33968 в реальном времени с AllMySat

Download on the App Store